Vertical_Velocity
-2 -2 -2 -2 -2 -2 -2 -2 -2 -2 -2 -3 -4 -3 -2 -1 0 1 2 0 -1 -2 -2 -2 -2 -1 1 2 2 2 1 1 1 -0 -1 -2 -2 0 5 9 10 8 1 2 3 4 7 4 5 6 5 -0 -2 -0 1 2 1 0 -0 -1 1 2 1 0 1 2 2 2 2 1 0 1 1 1 1 1 1 1 1 0 -0 -0 1 1 -0 -2 -2 -1 0 0 -0 1 2 2 1 1 1 1 0 1 1 1 1
-2 -2 -2 -2 -2 -2 -2 -2 -2 -2 -2 -2 -3 -4 -4 -2 -1 1 2 2 1 -0 -1 -2 -2 -2 -1 0 1 2 1 1 1 -0 -1 -2 -2 0 5 11 12 8 4 5 4 4 9 4 2 3 6 2 -2 -3 -0 1 2 1 -0 -1 1 3 1 1 1 2 2 2 2 1 0 1 1 1 1 1 1 1 1 0 -0 -0 0 0 -0 -0 -1 -0 0 1 -0 1 1 1 1 1 1 1 0 1 1 1 1
-2 -2 -2 -2 -2 -2 -2 -2 -2 -2 -1 -2 -2 -3 -4 -4 -3 -1 1 3 2 1 0 -1 -2 -2 -2 -1 0 1 1 1 1 0 -1 -2 -2 -1 2 8 12 12 10 6 4 3 6 3 1 1 8 4 -1 -5 -3 0 1 1 0 -0 2 4 2 2 2 3 2 2 2 1 0 1 1 1 1 1 1 1 1 1 0 0 1 -0 -0 -0 1 0 1 1 0 0 0 1 1 1 1 1 0 1 1 1 1
-1 -1 -2 -1 -1 -2 -2 -2 -2 -2 -1 -1 -2 -2 -3 -4 -4 -3 -1 1 2 3 2 0 -1 -2 -2 -2 -1 -0 1 1 1 0 -0 -1 -1 -1 0 4 9 12 12 7 5 4 3 0 -1 3 14 9 0 -6 -6 -3 -1 1 0 0 2 4 2 3 3 3 2 2 2 1 0 1 1 1 1 1 1 1 1 0 1 1 1 0 -0 -0 1 1 1 1 1 0 0 1 1 2 1 0 0 0 0 0 1
-1 -1 -1 -1 -1 -1 -1 -1 -1 -1 -2 -2 -2 -2 -2 -3 -3 -4 -3 -1 1 2 3 2 0 -1 -2 -2 -2 -1 0 1 1 0 -0 -0 -1 -1 -0 1 5 9 13 11 6 2 2 -1 -2 4 20 13 1 -8 -8 -6 -3 -1 -0 0 2 4 3 4 4 3 3 2 2 1 1 1 1 1 1 2 2 1 1 0 1 2 2 1 -0 -1 0 1 1 1 1 0 0 1 1 1 1 1 0 0 0 0 0
-0 -0 -1 -1 -0 -0 -0 -1 -1 -1 -1 -2 -2 -2 -2 -2 -3 -3 -4 -3 -1 1 3 3 1 -0 -1 -2 -2 -2 -1 0 1 1 -0 -0 -1 -1 -1 1 2 4 8 11 7 2 2 -1 -3 3 23 15 3 -6 -7 -6 -4 -2 -1 0 2 3 3 4 4 4 3 3 2 2 2 2 1 1 1 2 2 1 0 0 1 1 3 1 -0 -1 -0 0 1 2 2 1 0 1 2 1 1 1 1 0 0 -0 0
-0 -0 -0 -0 -0 -1 -0 -0 -1 -1 -1 -1 -2 -2 -2 -2 -2 -3 -3 -3 -2 -1 1 2 2 1 0 -0 -1 -2 -1 -0 0 1 0 -0 -1 -1 -0 1 2 3 4 9 8 4 -0 -1 -4 -1 17 15 5 -4 -4 -4 -3 -2 -1 1 2 2 2 5 5 4 4 3 3 2 2 2 2 2 2 3 2 1 -0 0 0 1 2 2 1 -0 -1 -0 1 2 3 1 1 1 1 1 1 1 1 0 0 0 0
-1 -0 0 0 -0 -0 -0 -0 -0 -0 -1 -1 -1 -1 -2 -2 -2 -2 -2 -2 -2 -2 -1 1 2 3 2 1 0 -0 -1 -0 0 0 1 -0 -1 -1 -0 1 3 4 4 6 5 3 -0 -1 -4 -4 8 15 7 -3 -3 -1 -0 1 1 1 1 1 3 6 5 4 4 4 3 3 2 2 2 2 2 4 3 2 -1 -1 -0 0 1 2 1 0 -0 -0 1 1 2 1 1 1 1 1 1 1 1 1 0 0 0
-1 -0 -0 0 0 0 -0 -0 -0 -0 -0 -1 -1 -1 -2 -2 -1 -1 -1 -1 -2 -2 -2 -0 1 2 3 2 1 0 0 0 1 1 1 0 -1 -1 -0 1 2 3 3 3 2 2 0 -1 -4 -5 1 16 10 -1 -1 2 3 3 3 2 1 1 4 6 6 4 4 4 3 3 2 3 2 2 2 4 4 3 -1 -2 -1 0 0 1 1 0 -0 0 1 1 1 1 1 1 1 2 1 1 1 1 0 0 0
-0 -0 -0 0 0 1 1 0 0 0 0 -0 -0 -1 -1 -2 -2 -1 -1 -1 -1 -1 -1 -1 -0 1 3 3 2 1 1 1 2 2 2 0 -1 -1 -1 0 1 1 2 3 3 2 1 -1 -3 -5 -2 15 11 2 4 7 7 5 4 3 1 1 5 7 6 5 4 4 3 3 2 3 3 2 3 4 5 4 1 -1 -1 -0 1 1 1 0 -0 0 1 1 1 1 1 1 1 2 1 1 1 0 0 0 0
-1 -0 -0 -0 0 1 1 1 1 1 0 0 -0 -0 -1 -2 -2 -2 -1 -0 -0 -0 -1 -1 -1 -0 1 2 2 2 1 3 4 4 3 1 -0 -1 -0 -0 0 0 1 3 2 2 1 -0 -2 -4 -4 11 8 3 6 9 7 4 4 3 2 2 7 8 7 5 5 4 3 3 3 3 3 2 3 4 5 6 6 1 -1 -1 0 1 1 0 0 1 1 1 1 1 1 1 1 1 1 1 1 0 0 0 0
-1 -1 -0 -0 -0 0 0 0 0 0 0 0 0 -0 -0 -1 -1 -2 -1 -1 -0 0 0 -0 -0 -0 -0 1 2 3 4 4 4 3 2 1 -0 -1 -0 -0 0 0 -0 2 1 1 2 0 -1 -3 -4 6 4 0 3 8 7 4 6 4 2 3 8 8 6 5 4 4 4 4 3 3 2 2 3 3 4 4 6 3 0 -1 -0 0 0 0 0 1 1 1 1 1 1 1 1 1 1 1 1 1 0 0 1
-1 -0 -0 -0 -0 -0 -0 -0 -0 -0 0 1 1 0 0 -0 -1 -1 -1 -1 -0 -0 0 0 0 0 0 1 3 4 4 4 2 1 -0 -1 -1 -1 -0 -0 0 0 -0 0 0 0 3 4 2 -2 -5 2 2 -1 -0 5 6 4 3 2 2 4 9 7 6 4 4 4 4 4 4 3 2 2 3 3 3 3 4 4 2 0 0 0 -0 -0 -0 1 1 1 1 1 1 2 1 1 1 0 0 1 1 1 1
-1 -1 -1 -0 -0 0 0 -0 -0 -0 0 1 1 1 1 1 0 -0 -1 -1 -0 -0 -0 -0 0 0 1 1 2 3 3 2 1 0 -1 -1 -0 0 0 -0 0 0 0 -0 -1 -1 2 5 2 -2 -6 0 2 1 1 3 3 1 -3 -2 -0 3 8 6 4 3 3 3 3 3 3 3 2 3 3 4 3 2 3 3 3 2 1 1 0 -1 -1 -0 1 1 1 1 2 2 1 1 0 0 0 1 1 1 1
-2 -2 -1 -1 -0 0 1 1 0 0 0 1 1 1 2 1 1 1 -0 -0 -0 -0 -0 -0 -0 -0 0 1 1 2 1 1 1 2 2 2 2 2 1 0 0 0 0 -0 -1 -2 -1 1 -1 -4 -6 2 5 5 2 2 0 -1 -4 -2 -1 -0 3 3 2 1 2 2 2 3 3 2 2 3 4 4 2 1 2 3 2 2 3 2 1 -0 -1 -0 0 1 1 1 2 2 1 1 0 0 0 1 1 1 1
-3 -3 -2 -2 -1 -1 0 0 0 0 0 0 0 0 1 1 1 1 1 0 0 0 -0 -1 -1 -1 -0 0 1 0 -0 0 1 4 6 6 5 4 2 2 2 1 1 -0 -1 -1 -1 -1 -3 -5 -7 3 10 10 -2 -2 -2 -2 2 5 2 -3 -4 0 1 -0 1 1 1 2 2 2 2 2 4 2 1 0 3 3 3 2 3 2 2 1 0 1 1 1 1 1 2 2 1 1 0 -0 0 1 1 1 1
-3 -3 -3 -2 -2 -2 -1 -1 -0 0 0 0 -0 -0 -1 0 1 1 1 1 1 0 0 -1 -1 -1 -1 -0 -0 -0 -1 -0 2 4 7 8 7 5 3 5 5 4 3 1 1 1 0 -1 -2 -4 -6 0 10 11 -7 -6 -5 -0 12 18 14 4 -6 -0 1 -0 -0 0 1 1 2 2 2 2 3 2 -0 -1 2 3 4 4 4 2 2 1 1 1 1 1 1 1 1 2 1 1 0 0 -0 0 1 1 1
-2 -2 -2 -2 -2 -2 -2 -1 -1 -0 0 0 0 -0 -1 -0 0 0 1 0 0 0 -0 -0 -0 -1 -1 -0 -0 -1 -2 -1 1 4 5 6 6 6 5 6 7 7 5 4 3 3 2 -1 -2 -3 -4 -3 5 8 -8 -9 -6 1 15 24 27 21 6 6 5 2 0 0 1 2 3 3 2 1 3 1 -1 -2 -1 1 3 4 3 3 2 2 2 1 2 2 1 1 1 1 1 1 0 0 -0 0 1 1 1
-0 -1 -1 -1 -1 -1 -1 -1 -1 -0 0 0 0 0 -0 -0 -0 0 0 0 0 -0 -0 0 0 0 0 0 0 -0 -1 -0 1 2 2 3 5 6 6 7 8 7 5 5 5 5 4 0 -2 -2 -3 -4 1 4 -6 -9 -6 0 11 17 26 31 27 20 11 4 1 1 2 3 4 4 2 1 1 0 -1 -2 -1 1 2 3 3 3 3 3 2 2 1 1 1 1 1 1 1 1 1 0 0 0 1 1 1
0 0 -0 -0 -0 -0 -0 -1 -0 -0 0 1 1 0 0 0 0 0 0 0 0 0 0 0 0 0 0 1 1 1 -0 0 0 0 -0 1 3 5 6 8 8 7 4 5 5 5 4 1 -1 -2 -2 -4 -1 1 -4 -7 -6 -0 5 9 16 26 33 27 15 4 0 2 4 5 5 4 2 0 0 -0 -1 -2 -2 -0 1 2 2 3 4 4 3 2 1 1 1 0 0 1 1 1 1 1 0 0 1 1 1
0 0 0 -0 -0 -0 -0 -0 0 0 1 1 1 1 1 1 1 1 1 1 1 1 1 1 0 0 0 1 1 1 1 1 0 -1 -2 0 2 4 5 7 8 8 5 5 4 4 4 2 0 -1 -2 -3 -2 -1 -3 -6 -4 -1 1 4 9 15 20 28 24 13 -3 -1 2 4 4 2 1 -0 -0 0 -1 -3 -4 -2 -0 1 2 3 4 4 3 2 2 1 1 0 0 0 1 1 1 1 1 1 1 1 1
-0 0 0 -0 -0 -1 -1 -1 0 1 1 1 1 1 1 2 2 1 1 1 1 1 2 1 1 0 0 1 1 1 1 1 0 -1 -2 0 3 5 4 4 7 9 9 7 5 4 4 3 2 0 -1 -4 -4 -2 -0 -4 -3 -1 -2 1 6 10 8 26 29 17 -11 -14 -11 -4 0 -1 -1 -1 0 0 -1 -2 -4 -2 -1 0 1 3 4 4 4 3 2 2 1 0 0 0 1 1 1 0 1 1 1 1 1
-0 -0 -0 -0 -0 -1 -1 -1 0 1 0 1 1 1 1 3 3 2 2 1 1 1 2 1 1 0 1 1 1 1 1 1 0 -1 -2 1 4 6 4 2 3 7 12 8 6 4 4 3 3 2 -0 -3 -4 -2 3 -3 -3 -1 -1 -1 3 6 1 7 3 -9 -28 -29 -24 -15 -6 -4 -3 -1 0 0 -0 -1 -3 -2 -1 -0 0 2 4 4 4 3 3 2 1 1 0 0 1 1 1 0 1 1 1 1 1
-0 -0 0 0 0 -0 -0 -0 -0 -0 -1 -0 0 1 1 2 3 3 2 2 1 1 1 1 0 0 1 1 2 2 3 2 1 0 -0 2 5 6 4 1 1 5 13 11 8 5 5 4 4 3 1 -1 -3 -2 5 -2 -4 -2 0 -1 -0 1 -2 -10 -18 -28 -39 -31 -24 -17 -11 -7 -4 -2 1 1 -0 -2 -3 -2 -1 -1 -1 2 4 4 4 3 3 2 1 1 1 0 1 0 0 0 0 1 1 1 1
-0 0 0 1 1 0 1 1 0 -0 -1 -1 -1 -0 -0 1 2 2 2 2 2 2 1 1 0 0 1 1 2 3 3 3 2 2 2 4 6 6 4 1 -0 2 10 12 10 6 5 8 7 5 3 1 -1 -0 6 -1 -5 -4 0 -1 -2 -2 -2 -2 -6 -14 -28 -22 -17 -14 -14 -9 -5 -1 1 -1 -2 -4 -4 -4 -4 -4 -4 -0 3 5 4 4 3 2 1 1 1 1 0 0 0 0 0 0 1 1 1
-1 -0 -1 0 0 0 1 1 0 -0 -0 -1 -1 -0 -1 -0 1 1 2 2 2 2 2 1 0 0 1 0 1 2 3 3 2 2 3 5 6 5 3 1 -1 -0 5 10 9 7 5 10 10 8 4 2 -0 1 7 1 -4 -6 -1 -2 -3 -3 0 7 4 -4 -17 -15 -14 -13 -16 -10 -4 1 1 -2 -4 -4 -5 -6 -7 -8 -7 -2 2 5 5 4 3 2 2 1 1 1 0 0 -0 -0 0 0 0 1 1
-1 -1 -2 -1 -1 -0 0 0 0 0 1 1 1 1 0 0 0 1 2 2 2 2 2 2 2 1 -0 -0 -0 1 2 2 3 3 4 5 5 4 2 1 -1 -1 1 7 8 6 5 10 11 10 6 2 0 1 6 5 1 -3 -4 -3 -4 -3 2 8 2 -8 -19 -16 -14 -15 -17 -10 -2 3 2 -1 -4 -5 -5 -7 -8 -8 -8 -3 2 6 5 4 4 3 2 2 1 1 1 -0 -0 0 0 0 0 0 1
-1 -1 -1 -1 -1 -1 -0 -0 0 0 -0 0 1 1 2 1 1 1 3 2 2 2 2 2 2 2 -0 -0 -0 -0 0 2 3 4 5 4 3 3 2 1 0 -1 -1 4 6 6 5 9 11 12 10 4 1 0 3 10 12 9 -0 -1 -2 -1 1 4 -1 -11 -22 -19 -15 -14 -15 -8 -1 3 2 0 -2 -4 -6 -5 -5 -5 -7 -4 2 6 6 4 4 3 2 2 1 1 1 -0 -0 -0 -0 0 0 0 0
-1 -1 -0 -1 -1 -1 -1 -1 -0 -0 -0 0 -0 -1 0 1 1 1 2 2 2 2 2 2 2 2 1 0 -0 -0 -0 1 2 3 4 3 2 2 3 2 1 -0 -1 2 6 10 7 6 8 11 11 7 3 0 0 13 20 19 7 3 1 1 1 1 -1 -6 -13 -13 -11 -9 -9 -5 -1 2 2 0 -2 -4 -5 -4 -2 -3 -6 -4 1 6 7 5 4 3 3 2 2 1 1 0 0 -0 -0 -0 -0 -0 -0
-1 -1 -0 -0 -0 -1 -1 -1 -1 -1 -0 0 0 -1 -2 -1 -1 -0 0 1 2 2 2 2 2 2 2 1 1 0 -1 0 1 2 3 2 1 2 4 3 2 1 1 0 6 12 12 6 6 7 8 7 4 2 1 12 20 21 13 8 4 2 0 -1 -1 -2 -3 -3 -3 -2 -2 -0 2 4 4 3 0 -2 -4 -5 -5 -5 -6 -3 1 6 8 7 6 4 3 3 2 1 1 1 0 -0 -0 -0 -0 -0 -1
-1 -1 -0 -0 0 0 0 0 -0 -1 -1 -0 -0 -1 -2 -2 -2 -1 -1 1 1 2 2 2 3 3 2 2 2 1 -0 1 1 1 3 2 2 2 3 3 3 2 1 0 3 8 14 10 6 4 4 4 5 6 8 12 17 19 16 9 4 1 -1 -2 -2 -1 -0 1 1 0 0 3 5 6 7 4 2 -0 -2 -6 -9 -10 -10 -4 1 6 9 8 6 5 3 2 2 1 1 1 0 -0 -0 -0 -0 -1 -1
-2 -2 -1 -1 -0 0 1 1 1 1 0 -0 -0 -1 -1 -0 -1 -1 -1 0 1 1 2 2 2 2 3 3 2 1 1 1 1 1 2 2 2 1 2 3 4 3 1 1 1 3 14 12 6 1 3 4 8 12 12 9 12 15 14 5 -0 -2 -4 -4 -2 -0 1 2 1 0 -0 3 5 6 7 4 2 2 2 0 -2 -6 -11 -5 1 7 11 8 5 3 2 2 1 1 1 1 0 -0 -0 -0 -0 -1 -1
-4 -4 -4 -3 -2 -1 0 1 1 1 1 0 -0 -0 0 1 0 -0 -1 -0 0 1 1 1 1 2 3 3 2 2 3 2 1 1 1 2 2 1 1 3 3 3 3 2 -1 -0 10 16 10 3 4 6 8 8 5 3 6 11 12 2 -2 -4 -4 -3 -2 -0 1 1 1 0 -1 1 2 2 2 1 1 2 4 6 9 8 -3 -2 1 7 11 7 5 2 1 1 1 0 0 0 0 -0 -0 -0 -0 -1 -1
-6 -6 -6 -5 -5 -4 -2 -1 0 1 1 -0 -1 -0 1 1 1 1 1 0 -0 -0 0 0 1 1 1 2 2 3 3 2 2 2 1 3 3 2 2 2 3 3 4 1 -1 -2 1 15 16 10 3 5 6 5 2 2 7 12 13 2 -3 -3 -1 -1 -0 -0 0 0 1 2 1 -3 -4 -3 -2 -1 1 3 7 10 16 18 5 2 3 6 10 8 5 2 1 0 0 0 -0 -0 -0 -0 -0 -1 -1 -0 -0
-6 -6 -7 -7 -7 -6 -6 -4 -3 -1 -0 -1 -1 -1 0 1 1 1 2 1 1 1 1 1 0 0 1 1 1 2 3 3 3 2 2 3 3 3 2 1 2 3 3 1 -0 -2 -4 9 19 20 5 2 1 -0 -2 -0 7 13 14 3 -1 -0 2 2 2 1 0 0 2 3 0 -7 -8 -5 -2 -0 4 10 19 24 26 22 6 3 3 5 9 8 5 3 1 0 -0 -0 -0 -0 -0 -0 -0 -0 -0 -0 -0
-6 -6 -6 -7 -7 -7 -7 -6 -5 -3 -2 -2 -1 -0 0 0 0 1 2 2 3 3 2 2 1 0 0 -0 0 1 3 4 3 2 3 4 4 4 3 1 2 3 3 2 1 -1 -5 3 18 26 11 -0 -4 -4 -3 0 8 16 16 7 4 3 4 4 4 3 1 0 1 1 -1 -4 -4 -3 -1 1 12 27 42 33 22 11 -0 2 5 8 8 7 5 3 1 0 -0 -1 -1 -1 -1 -1 -0 -0 -0 0 -0
-5 -5 -6 -6 -6 -6 -6 -6 -5 -4 -4 -3 -2 -0 1 1 1 1 1 2 3 3 3 3 2 1 0 -0 -0 1 3 4 3 2 3 4 5 4 3 2 2 2 2 2 1 -1 -4 -3 14 28 17 -2 -7 -5 -2 4 12 18 16 11 8 6 2 3 3 2 1 -0 -1 -0 -0 0 0 -0 -0 3 17 34 48 15 -3 -7 -0 14 19 17 8 6 4 2 1 0 -0 -1 -1 -1 -0 -0 -0 -0 0 0 0
-5 -5 -4 -4 -4 -4 -5 -5 -4 -4 -4 -3 -2 -1 1 1 1 1 2 3 3 3 3 3 3 2 0 0 1 1 2 3 2 2 3 4 5 5 3 3 2 1 1 2 2 1 -3 -6 9 25 24 2 -7 -7 -1 8 16 19 16 15 13 8 1 2 2 2 1 -1 -2 -0 3 3 1 -0 -1 3 13 24 29 -7 -18 -9 15 31 31 21 7 4 2 1 1 0 -0 -0 -0 -0 -0 -0 -0 -0 -0 -0 -0
-4 -4 -4 -3 -3 -3 -3 -4 -4 -4 -4 -3 -2 -1 1 1 1 2 2 3 3 3 3 3 3 2 1 1 1 2 2 2 2 1 2 4 5 5 5 4 2 1 -0 2 3 2 -1 -4 4 18 29 10 -3 -8 -2 10 18 21 19 20 15 7 -1 2 3 3 2 -2 -3 0 6 4 2 -0 0 -0 7 14 17 -6 -8 5 31 34 26 14 4 1 -1 -1 1 1 0 -0 0 0 -0 -0 -1 -1 -0 -1 -1
-3 -3 -3 -3 -3 -3 -3 -3 -3 -3 -3 -2 -1 -0 2 2 2 2 2 2 2 2 3 3 2 2 1 1 2 2 2 2 1 1 2 4 4 5 6 5 3 1 -0 1 2 1 -0 -2 0 10 31 15 0 -7 -2 10 18 23 23 23 14 3 -2 1 3 4 4 -3 -4 -1 7 6 3 3 7 1 3 9 16 8 7 14 29 24 15 6 2 -2 -4 -4 -0 1 1 0 1 1 0 -0 -1 -1 -1 -1 -1
-4 -4 -4 -4 -4 -3 -3 -3 -2 -2 -2 -2 -1 -0 2 3 3 3 2 1 1 1 2 2 2 1 1 1 2 2 1 1 1 1 1 3 4 5 6 6 4 2 -0 -0 -0 0 1 -0 -2 4 26 18 6 -3 -1 9 17 22 25 24 14 3 -2 1 2 3 5 -2 -5 -3 6 6 6 9 16 7 3 4 11 10 8 9 15 11 5 0 -1 -3 -6 -7 -2 1 1 1 1 2 1 -0 -1 -0 -0 -1 -1
-5 -5 -5 -5 -4 -4 -3 -3 -2 -2 -2 -2 -2 -1 1 3 4 4 3 1 1 1 1 1 1 1 1 0 1 1 0 2 2 2 1 2 3 4 5 6 5 3 -0 -1 -1 -0 1 0 -2 1 17 20 12 4 1 8 14 20 25 23 15 6 1 2 2 2 5 -1 -4 -3 6 7 10 15 21 13 6 2 3 4 4 4 5 3 -1 -4 -6 -5 -7 -8 -4 -0 1 2 1 2 1 0 -0 0 -0 -0 -1
-6 -6 -6 -5 -5 -4 -3 -3 -2 -2 -2 -2 -1 -1 0 2 4 4 4 2 1 0 0 1 0 -0 1 -0 0 1 1 2 3 3 2 2 3 4 4 4 4 3 1 -0 -1 -1 1 3 0 0 10 18 16 10 6 6 12 21 26 22 16 9 3 2 1 0 2 -0 -2 -1 6 5 13 22 24 17 10 5 3 3 3 4 4 3 -1 -5 -8 -6 -8 -8 -5 -1 1 3 3 3 2 0 -1 -0 -0 -1 -1
-6 -6 -6 -5 -4 -4 -3 -3 -3 -2 -2 -2 -1 -1 -0 1 2 4 3 2 0 -0 -0 0 0 -1 -1 -1 -0 -0 0 2 2 1 1 2 2 3 3 2 3 4 4 1 -0 -0 3 5 3 2 8 17 16 10 9 6 12 21 26 18 11 4 1 -1 -2 -2 -1 -0 -0 1 3 1 11 22 24 19 15 12 11 7 4 3 4 4 1 -3 -7 -7 -7 -7 -4 -2 1 2 4 4 3 1 -0 -1 -1 -1 -1
-7 -6 -6 -5 -4 -3 -2 -2 -2 -3 -2 -2 -1 -1 -1 0 2 2 2 1 0 -1 -1 -0 0 -0 -1 -1 -1 -1 -0 0 0 0 2 1 2 2 1 1 2 4 5 3 1 2 3 4 4 4 5 14 10 4 6 9 15 21 23 12 4 -1 -0 -2 -3 -4 -3 -1 0 0 1 1 7 14 15 17 18 19 21 12 6 2 3 3 1 -3 -8 -8 -7 -5 -2 -2 0 2 3 4 3 1 0 -0 -1 -1 -1
-6 -6 -5 -4 -4 -3 -2 -2 -2 -2 -2 -2 -2 -1 -1 0 1 2 2 1 -0 -1 -1 -0 0 0 -1 -1 -1 -1 -2 -1 -0 1 2 2 2 1 1 1 1 3 3 3 4 4 4 6 5 2 0 8 4 -2 2 12 19 21 17 6 1 -1 0 -1 -2 -3 -3 -2 -1 -1 0 1 6 10 10 11 14 17 18 11 5 2 2 2 1 -3 -8 -9 -7 -4 -2 -1 1 3 2 4 3 2 1 1 0 -0 -1
-5 -5 -4 -3 -3 -2 -2 -1 -2 -2 -2 -2 -2 -2 -1 -0 0 1 1 1 -0 -1 -1 -1 -1 -1 -0 -1 -1 -2 -2 -0 0 1 2 2 1 1 2 2 2 2 1 3 5 6 6 6 4 -0 -4 3 1 -2 2 12 16 16 10 5 2 0 -1 -1 -1 -2 -2 -1 -1 -1 1 1 5 9 10 8 8 8 7 4 3 3 1 2 2 2 -1 -6 -7 -6 -3 -0 2 3 3 4 4 3 1 2 1 0 -0
-4 -4 -4 -2 -2 -2 -1 -1 -1 -2 -2 -2 -2 -2 -1 -0 0 1 1 1 0 -0 -0 -1 -1 -1 -0 -1 -1 -2 -1 -0 1 3 4 3 1 1 2 2 2 1 2 5 7 8 7 5 2 -3 -7 1 2 1 4 12 15 13 5 6 4 2 -1 1 1 0 0 2 1 -0 2 1 3 5 6 6 5 4 3 3 4 3 1 -1 3 9 12 2 -5 -8 -5 -0 2 3 3 4 4 3 2 2 1 1 0
-3 -3 -3 -2 -2 -1 -1 -0 -1 -1 -2 -2 -2 -2 -1 -0 0 0 1 1 1 0 0 -1 -1 -1 -1 -1 -1 -1 -1 1 2 3 2 1 1 1 2 1 0 1 4 6 7 8 8 6 3 -3 -10 0 3 3 6 16 17 13 5 7 7 5 2 3 2 2 4 4 2 1 2 2 2 2 4 4 2 1 1 3 5 4 2 -4 3 14 20 9 -0 -5 -3 1 3 3 3 2 3 3 2 1 1 1 1
-3 -3 -3 -3 -2 -2 -1 -0 -0 -1 -2 -1 -1 -1 -0 0 1 1 1 1 1 1 0 -1 -1 -1 -1 -1 -1 -0 1 2 3 2 -1 -0 0 0 -1 0 1 2 5 6 6 8 10 11 6 -1 -10 -2 1 2 4 14 15 11 6 7 8 8 5 4 4 5 6 5 3 2 3 3 3 2 1 -2 -3 -2 0 4 5 5 1 -4 4 18 24 18 10 4 -0 3 4 4 4 3 2 2 2 2 1 1 1
-2 -3 -3 -3 -3 -2 -2 -1 -1 -1 -1 -1 -1 -0 0 1 1 1 1 2 2 2 2 -0 -1 -1 -1 -2 -1 0 2 2 2 1 -1 1 1 -1 -2 2 3 4 5 7 8 9 12 12 8 2 -6 -3 -1 1 1 8 10 8 7 7 8 9 8 7 6 6 7 5 3 3 3 6 4 -1 -7 -6 -4 -2 0 4 5 4 -2 -6 5 22 33 31 19 6 0 3 4 4 4 3 2 1 0 1 1 1 1
-3 -4 -4 -4 -3 -2 -2 -1 -1 0 0 -0 -0 1 2 3 3 2 2 3 3 2 2 -1 -3 -4 -4 -3 -1 0 2 1 1 1 -1 2 3 2 3 5 5 4 5 10 12 12 13 14 12 7 -2 -1 1 1 1 7 8 6 5 6 7 7 8 8 8 7 6 3 1 -1 -1 1 -3 -8 -8 -3 -1 1 2 5 4 1 -6 -5 9 27 40 32 14 0 -0 2 3 4 3 2 1 0 -1 0 2 3 1
-3 -4 -4 -4 -3 -2 -2 -2 -1 -0 -0 -0 -0 1 2 4 4 4 4 4 4 4 4 2 -1 -3 -6 -4 -2 -0 2 1 2 2 -0 -0 3 5 4 4 3 2 2 6 9 9 7 9 10 7 -2 1 3 2 3 6 5 4 3 3 4 5 8 8 8 7 5 2 -1 -4 -8 -11 -11 -8 0 4 4 3 4 6 3 -1 -5 5 15 23 26 12 1 -4 -0 0 1 1 2 1 1 0 -1 0 2 4 2
-3 -3 -3 -3 -3 -3 -3 -3 -2 -2 -1 -1 -1 -0 1 2 4 4 5 5 6 6 5 3 2 -0 -5 -6 -3 -0 2 2 4 5 1 -0 4 6 1 1 2 3 0 -2 -1 -2 -5 -2 -1 -2 -5 2 3 1 4 4 2 1 1 -0 2 6 11 11 9 6 2 -1 -4 -6 -10 -10 -4 3 7 5 4 4 6 5 2 1 5 14 13 5 -3 -9 -8 -4 0 -1 -3 -3 -1 1 1 1 1 0 3 4 2
-2 -2 -1 -1 -2 -2 -2 -2 -2 -2 -2 -2 -2 -2 -1 1 2 4 5 6 6 7 6 5 4 2 -2 -4 -4 -2 0 3 5 6 3 2 3 4 1 4 7 8 8 5 -2 -8 -9 -4 -3 -4 -3 0 1 1 4 2 0 -1 -1 -0 5 11 15 13 9 4 -2 -4 -4 -4 -4 1 6 8 5 3 3 4 6 4 2 3 10 10 1 -8 -14 -14 -9 -3 -0 -4 -6 -6 -5 -2 1 3 3 3 4 4 2
-2 -1 -1 -1 -1 -1 -1 -1 -2 -2 -2 -2 -2 -1 -1 -0 1 2 3 4 5 5 5 5 4 3 2 -1 -2 -2 -1 2 5 6 4 1 2 3 2 2 5 9 13 6 -2 -7 -4 2 6 7 1 -2 -1 0 -0 -1 -1 1 2 0 6 14 18 13 7 1 -4 -2 2 5 2 4 5 3 -0 -0 1 3 4 3 1 1 2 -1 -4 -7 -12 -12 -8 -4 -3 -3 -2 -2 -3 -1 1 3 4 6 6 4 3
-3 -2 -2 -2 -2 -1 -1 -0 -1 -2 -2 -2 -1 -1 -0 -1 -0 1 0 -0 0 1 2 2 2 2 2 0 -1 -1 -2 -1 3 6 4 1 2 5 8 3 3 3 -0 -4 -5 -4 0 5 7 5 -3 -1 0 -1 -3 -3 -0 5 12 3 1 4 11 6 3 0 -1 0 4 7 3 3 2 0 -3 -2 0 6 14 7 2 0 -1 -2 -4 -6 -9 -8 -6 -4 -2 -0 0 0 -1 2 4 6 8 11 9 4 2
-3 -3 -3 -2 -2 -1 -1 0 -0 -1 -1 -1 -0 -0 0 0 1 1 -0 -1 -2 -2 -1 -1 -1 -0 1 -0 -1 -1 -2 -3 0 5 7 4 3 5 13 9 10 11 3 2 3 3 -1 3 -1 -7 -8 4 5 1 -0 1 2 6 17 7 -2 -7 -4 -1 3 5 4 2 2 3 5 4 2 -1 -2 -3 3 13 28 12 4 0 -0 -2 -4 -6 -5 -5 -4 -1 3 1 -2 -4 -3 2 9 15 20 17 10 3 1
-2 -3 -4 -3 -2 -2 -1 1 2 2 2 2 2 2 2 3 3 3 1 1 -0 -1 -2 -3 -3 -2 -2 -2 -1 -1 -2 -3 -1 3 8 8 4 2 8 8 12 13 4 8 12 9 -2 -6 -9 -9 -5 2 2 1 0 -1 -1 3 12 6 -1 -4 -0 6 10 10 4 2 2 3 6 5 2 -1 -2 0 12 26 31 11 3 0 -0 -3 -4 -4 -4 -4 -1 2 6 3 -0 -2 1 5 14 23 28 18 10 3 -0
-1 -2 -4 -4 -4 -3 -1 2 3 4 4 4 3 3 3 4 3 2 1 0 -1 -2 -4 -4 -3 -3 -2 -3 -3 -2 -2 -1 -0 2 5 10 7 3 3 7 16 19 7 5 7 8 -1 -6 -7 -6 -5 -7 -7 -6 -3 -5 -4 -1 4 2 1 3 10 12 12 10 5 3 3 3 3 3 3 3 4 12 25 33 22 6 1 1 -0 -2 -3 -4 -4 -4 -2 1 5 3 1 1 5 12 19 25 25 16 9 4 -1
-1 -1 -2 -4 -6 -4 -0 3 4 3 3 1 0 -0 1 1 1 1 -0 -1 -2 -4 -4 -4 -2 -0 0 -2 -3 -3 -1 -1 -0 2 6 11 8 4 1 6 17 23 15 6 4 4 -1 3 4 1 -3 -3 -4 -7 -10 -9 -6 -2 1 1 2 6 12 11 10 9 7 7 6 4 4 5 7 11 19 25 31 30 15 3 -1 -0 -1 -3 -4 -5 -5 -3 -0 1 1 0 1 2 5 10 17 20 19 15 9 5 2
Height
3085 3085 3085 3085 3085 3086 3086 3087 3087 3088 3089 3090 3091 3092 3093 3094 3095 3096 3097 3098 3099 3100 3100 3101 3102 3103 3104 3105 3106 3108 3109 3110 3111 3112 3113 3114 3115 3115 3116 3116 3117 3117 3118 3119 3119 3119 3120 3122 3123 3124 3125 3124 3124 3124 3125 3126 3126 3127 3128 3128 3129 3130 3130 3131 3132 3133 3134 3134 3134 3134 3134 3135 3135 3135 3136 3136 3137 3137 3137 3137 3137 3137 3138 3138 3139 3139 3139 3139 3139 3139 3140 3141 3141 3141 3142 3142 3142 3143 3143 3143 3144 3144 3144
3083 3083 3083 3083 3083 3083 3084 3084 3084 3085 3086 3087 3088 3089 3090 3091 3092 3093 3094 3095 3096 3097 3098 3099 3099 3100 3101 3103 3104 3105 3106 3108 3109 3110 3111 3112 3112 3113 3114 3115 3115 3115 3116 3117 3117 3118 3118 3119 3121 3123 3124 3124 3123 3123 3124 3124 3125 3126 3126 3127 3128 3129 3129 3130 3131 3132 3132 3133 3133 3133 3134 3134 3134 3134 3135 3135 3136 3136 3136 3136 3136 3136 3136 3137 3138 3138 3138 3138 3138 3139 3139 3140 3140 3141 3141 3141 3141 3142 3142 3143 3143 3143 3144
3081 3081 3081 3081 3081 3081 3081 3082 3082 3083 3083 3084 3085 3086 3087 3088 3089 3090 3091 3092 3093 3094 3095 3096 3097 3098 3099 3100 3102 3103 3104 3105 3107 3107 3108 3109 3110 3111 3112 3113 3114 3114 3114 3115 3116 3116 3117 3118 3120 3122 3122 3122 3121 3121 3122 3123 3124 3124 3125 3126 3127 3128 3128 3129 3130 3130 3131 3131 3132 3132 3132 3133 3133 3133 3134 3134 3134 3135 3135 3135 3135 3135 3136 3136 3136 3137 3137 3137 3138 3138 3138 3139 3139 3140 3140 3140 3141 3141 3141 3142 3142 3142 3143
3079 3079 3079 3079 3079 3079 3079 3079 3080 3080 3081 3081 3082 3083 3084 3085 3086 3087 3088 3089 3090 3091 3092 3093 3094 3095 3096 3098 3099 3100 3102 3103 3104 3105 3106 3107 3108 3108 3109 3110 3111 3112 3113 3113 3114 3114 3115 3116 3118 3120 3119 3120 3120 3120 3120 3121 3122 3123 3124 3124 3125 3126 3127 3128 3129 3129 3129 3130 3130 3131 3131 3131 3132 3132 3133 3133 3134 3134 3134 3134 3134 3135 3135 3135 3135 3135 3136 3136 3136 3137 3137 3138 3138 3139 3139 3139 3140 3140 3140 3141 3141 3141 3142
3077 3077 3077 3077 3077 3077 3077 3077 3078 3078 3078 3079 3079 3080 3081 3082 3083 3084 3085 3086 3087 3088 3089 3090 3091 3092 3093 3095 3096 3098 3099 3101 3102 3103 3104 3104 3105 3106 3107 3107 3108 3109 3111 3111 3112 3113 3113 3114 3116 3117 3117 3118 3119 3119 3119 3119 3120 3121 3122 3123 3124 3124 3125 3126 3127 3128 3128 3129 3129 3129 3130 3130 3130 3131 3131 3132 3132 3133 3133 3133 3134 3134 3134 3134 3134 3134 3135 3135 3135 3136 3136 3137 3137 3138 3138 3139 3139 3139 3140 3140 3140 3141 3141
3075 3075 3075 3075 3075 3075 3075 3075 3075 3076 3076 3076 3077 3077 3078 3079 3079 3081 3082 3083 3084 3085 3086 3087 3088 3089 3090 3092 3093 3095 3096 3098 3099 3100 3101 3102 3103 3104 3104 3105 3106 3107 3108 3110 3111 3111 3111 3113 3114 3115 3115 3115 3116 3117 3117 3117 3118 3119 3120 3121 3122 3123 3124 3125 3125 3126 3127 3127 3128 3128 3129 3129 3129 3130 3130 3131 3131 3131 3132 3132 3132 3133 3133 3133 3133 3133 3134 3134 3134 3135 3135 3136 3136 3137 3137 3138 3138 3138 3139 3139 3139 3140 3140
3073 3073 3073 3073 3073 3073 3073 3073 3073 3074 3074 3074 3074 3075 3075 3076 3076 3077 3079 3080 3081 3082 3083 3084 3085 3086 3087 3089 3090 3092 3093 3095 3096 3098 3099 3099 3100 3101 3102 3103 3104 3105 3106 3107 3108 3109 3109 3111 3112 3113 3114 3113 3114 3116 3116 3116 3116 3117 3118 3119 3120 3121 3122 3123 3124 3124 3125 3126 3126 3127 3127 3128 3128 3128 3129 3129 3130 3130 3130 3131 3131 3131 3132 3132 3132 3132 3132 3133 3133 3134 3134 3135 3135 3135 3136 3137 3137 3137 3138 3138 3139 3139 3139
3070 3070 3070 3070 3070 3070 3071 3071 3071 3071 3071 3072 3072 3072 3073 3073 3074 3074 3075 3076 3077 3079 3080 3081 3082 3083 3084 3085 3087 3088 3090 3092 3093 3094 3096 3097 3098 3099 3099 3100 3101 3103 3104 3104 3105 3106 3107 3109 3110 3111 3112 3111 3112 3114 3114 3114 3114 3115 3116 3117 3118 3119 3120 3122 3122 3123 3124 3124 3125 3125 3125 3126 3126 3127 3128 3128 3129 3129 3129 3129 3129 3130 3130 3130 3131 3131 3131 3131 3132 3133 3133 3134 3134 3134 3135 3135 3136 3136 3137 3137 3138 3138 3138
3068 3068 3068 3068 3068 3068 3068 3068 3069 3069 3069 3069 3069 3070 3070 3070 3071 3071 3072 3073 3074 3075 3076 3078 3079 3080 3081 3083 3084 3085 3087 3088 3090 3091 3093 3094 3095 3096 3097 3098 3099 3100 3102 3103 3103 3104 3105 3106 3108 3109 3109 3109 3110 3112 3112 3112 3112 3113 3114 3114 3115 3117 3119 3120 3120 3121 3122 3122 3123 3124 3124 3124 3125 3125 3126 3127 3127 3127 3128 3128 3129 3129 3129 3129 3129 3129 3130 3130 3131 3131 3132 3132 3133 3133 3134 3134 3135 3135 3136 3136 3137 3137 3138
3065 3065 3065 3065 3065 3065 3065 3066 3066 3066 3066 3067 3067 3067 3068 3068 3068 3069 3069 3070 3070 3072 3073 3074 3075 3077 3078 3079 3081 3082 3084 3085 3087 3088 3089 3091 3092 3093 3094 3095 3096 3098 3099 3100 3101 3102 3103 3104 3105 3107 3107 3107 3108 3109 3110 3110 3110 3111 3112 3112 3113 3114 3117 3118 3119 3119 3120 3120 3121 3122 3122 3123 3123 3124 3124 3125 3126 3126 3126 3127 3127 3128 3128 3128 3128 3128 3129 3129 3129 3130 3130 3131 3131 3132 3132 3133 3134 3134 3135 3135 3136 3136 3137
3062 3062 3062 3062 3062 3062 3062 3063 3063 3063 3064 3064 3064 3065 3065 3065 3066 3066 3066 3067 3067 3068 3069 3070 3072 3073 3074 3076 3078 3079 3080 3082 3083 3085 3086 3087 3089 3090 3092 3093 3094 3095 3096 3098 3099 3099 3100 3101 3102 3104 3105 3105 3106 3107 3108 3108 3109 3109 3110 3110 3111 3113 3115 3116 3117 3117 3118 3119 3119 3120 3120 3121 3122 3122 3123 3124 3124 3125 3125 3126 3126 3126 3127 3127 3127 3127 3127 3127 3128 3129 3129 3129 3130 3131 3131 3132 3133 3133 3134 3134 3135 3135 3136
3059 3059 3059 3059 3059 3059 3059 3059 3060 3060 3060 3061 3061 3062 3062 3063 3063 3064 3064 3064 3064 3065 3066 3067 3068 3069 3071 3073 3074 3076 3077 3079 3080 3081 3082 3084 3085 3087 3089 3090 3091 3092 3093 3095 3096 3097 3098 3098 3099 3101 3103 3104 3105 3105 3106 3106 3106 3107 3108 3109 3109 3111 3113 3114 3114 3115 3116 3117 3118 3118 3119 3119 3120 3121 3121 3122 3123 3124 3124 3124 3125 3125 3125 3126 3126 3126 3126 3126 3127 3127 3128 3128 3129 3129 3130 3130 3131 3132 3133 3133 3134 3134 3134
3055 3055 3056 3056 3056 3056 3056 3056 3056 3057 3057 3058 3058 3059 3059 3060 3060 3061 3061 3062 3062 3062 3063 3064 3065 3066 3067 3069 3070 3072 3074 3075 3076 3078 3079 3080 3082 3084 3085 3087 3088 3089 3091 3092 3094 3095 3095 3096 3097 3099 3100 3102 3103 3103 3104 3104 3105 3105 3106 3107 3108 3109 3111 3112 3112 3113 3114 3115 3115 3116 3117 3118 3119 3119 3120 3120 3121 3123 3123 3123 3123 3124 3124 3124 3125 3125 3125 3125 3125 3126 3126 3127 3127 3128 3128 3129 3130 3131 3132 3132 3133 3133 3134
3052 3052 3052 3052 3053 3053 3053 3053 3053 3054 3054 3054 3055 3055 3056 3057 3058 3058 3059 3059 3059 3059 3060 3061 3062 3063 3064 3065 3067 3068 3069 3071 3073 3074 3076 3077 3079 3081 3082 3084 3085 3087 3088 3089 3091 3092 3093 3093 3094 3096 3098 3099 3100 3101 3101 3102 3103 3104 3104 3106 3106 3107 3109 3110 3110 3111 3112 3113 3114 3114 3115 3116 3117 3118 3118 3119 3119 3121 3122 3122 3122 3122 3123 3123 3124 3124 3124 3124 3124 3124 3125 3125 3126 3127 3127 3128 3129 3130 3130 3131 3132 3132 3132
3049 3049 3049 3049 3049 3049 3049 3050 3050 3050 3050 3051 3051 3052 3053 3053 3054 3055 3056 3056 3057 3057 3057 3058 3059 3059 3060 3062 3063 3064 3065 3067 3069 3071 3073 3074 3076 3078 3079 3081 3082 3084 3085 3086 3088 3089 3090 3091 3092 3094 3095 3097 3097 3098 3098 3099 3100 3101 3102 3104 3104 3104 3106 3107 3108 3109 3110 3111 3112 3113 3114 3114 3115 3116 3117 3117 3119 3120 3120 3120 3120 3120 3121 3122 3122 3123 3123 3123 3123 3123 3124 3124 3124 3125 3126 3127 3128 3129 3129 3130 3130 3131 3131
3046 3046 3046 3046 3046 3046 3046 3046 3046 3047 3047 3047 3048 3048 3049 3049 3050 3051 3052 3053 3054 3054 3055 3055 3055 3056 3057 3058 3060 3061 3062 3063 3065 3067 3069 3071 3073 3074 3076 3077 3079 3080 3082 3083 3085 3086 3087 3089 3090 3092 3093 3094 3094 3094 3096 3097 3098 3099 3100 3101 3102 3102 3103 3104 3105 3106 3108 3109 3110 3111 3112 3113 3114 3115 3116 3116 3118 3119 3119 3119 3119 3119 3119 3120 3120 3121 3122 3122 3122 3122 3122 3123 3123 3124 3124 3125 3126 3127 3128 3129 3129 3130 3130
3043 3043 3043 3043 3043 3043 3043 3043 3043 3043 3043 3044 3044 3044 3045 3045 3046 3047 3049 3049 3050 3051 3052 3052 3053 3053 3054 3055 3056 3058 3059 3060 3062 3064 3066 3068 3070 3072 3073 3074 3075 3077 3079 3080 3082 3084 3085 3086 3088 3089 3091 3092 3091 3091 3094 3095 3096 3097 3097 3098 3099 3100 3100 3101 3102 3104 3105 3107 3108 3109 3110 3112 3113 3114 3114 3115 3116 3117 3117 3117 3117 3117 3118 3119 3119 3120 3120 3121 3121 3121 3121 3122 3122 3122 3123 3124 3125 3126 3127 3127 3128 3129 3129
3039 3039 3039 3039 3039 3039 3040 3040 3040 3040 3040 3040 3040 3041 3041 3042 3043 3044 3044 3045 3046 3047 3048 3049 3049 3050 3051 3052 3053 3054 3055 3057 3059 3060 3062 3064 3066 3068 3070 3071 3072 3074 3075 3077 3079 3081 3083 3084 3085 3087 3089 3090 3090 3090 3092 3094 3094 3095 3095 3094 3095 3097 3098 3098 3099 3101 3103 3104 3106 3108 3109 3110 3111 3112 3113 3114 3114 3115 3116 3116 3116 3116 3117 3117 3118 3118 3119 3119 3120 3120 3120 3120 3121 3121 3122 3123 3124 3125 3125 3126 3127 3127 3128
3036 3036 3036 3036 3036 3036 3036 3036 3036 3037 3037 3037 3037 3038 3038 3038 3039 3039 3040 3041 3042 3043 3044 3045 3046 3047 3047 3049 3049 3051 3052 3054 3055 3057 3059 3060 3063 3065 3067 3068 3069 3071 3072 3074 3076 3078 3079 3081 3083 3084 3086 3088 3089 3089 3090 3091 3093 3094 3093 3091 3091 3093 3095 3095 3097 3099 3101 3103 3104 3106 3107 3109 3109 3111 3112 3113 3113 3114 3114 3114 3114 3115 3115 3116 3116 3117 3118 3118 3119 3119 3119 3119 3119 3120 3121 3122 3123 3124 3124 3125 3125 3126 3127
3033 3033 3033 3032 3032 3032 3032 3033 3033 3033 3033 3034 3034 3034 3034 3035 3035 3036 3037 3037 3038 3039 3040 3041 3042 3043 3044 3045 3046 3047 3049 3050 3052 3053 3055 3057 3059 3061 3063 3065 3066 3068 3069 3071 3073 3075 3076 3078 3079 3081 3084 3085 3087 3087 3088 3089 3091 3092 3093 3089 3089 3090 3092 3094 3096 3097 3097 3100 3102 3104 3105 3107 3108 3109 3110 3111 3112 3112 3113 3113 3113 3114 3114 3114 3115 3115 3116 3117 3117 3117 3118 3118 3118 3119 3119 3120 3121 3122 3123 3124 3124 3125 3125
3030 3029 3029 3029 3029 3029 3029 3029 3029 3029 3029 3030 3030 3030 3031 3032 3032 3033 3033 3034 3034 3035 3037 3038 3039 3039 3040 3042 3043 3044 3045 3047 3048 3050 3052 3054 3055 3058 3060 3062 3063 3064 3066 3068 3070 3072 3073 3075 3076 3078 3080 3083 3084 3085 3085 3087 3089 3090 3091 3090 3088 3087 3088 3092 3095 3094 3093 3095 3099 3101 3103 3105 3106 3107 3108 3109 3110 3111 3111 3112 3112 3113 3113 3113 3114 3114 3115 3115 3116 3116 3116 3116 3117 3118 3118 3119 3120 3121 3122 3122 3123 3124 3124
3027 3027 3026 3026 3026 3025 3025 3025 3025 3026 3026 3026 3026 3027 3027 3028 3028 3029 3029 3030 3031 3032 3033 3034 3035 3036 3037 3038 3039 3040 3041 3043 3044 3046 3048 3050 3052 3054 3056 3058 3059 3061 3063 3065 3067 3069 3070 3071 3073 3075 3077 3079 3081 3082 3083 3085 3086 3088 3089 3090 3089 3086 3085 3089 3091 3090 3086 3089 3094 3098 3101 3103 3104 3105 3106 3107 3108 3109 3109 3110 3110 3111 3112 3112 3112 3113 3114 3114 3114 3114 3114 3115 3116 3116 3117 3118 3119 3119 3120 3121 3122 3122 3123
3024 3024 3024 3023 3023 3023 3022 3022 3022 3023 3022 3022 3023 3023 3023 3024 3024 3025 3026 3026 3027 3028 3029 3030 3031 3032 3033 3034 3035 3036 3037 3039 3040 3042 3044 3047 3049 3051 3053 3054 3056 3058 3059 3061 3064 3065 3067 3069 3070 3072 3074 3076 3078 3079 3080 3082 3084 3085 3086 3088 3089 3088 3085 3086 3085 3084 3083 3086 3089 3094 3097 3100 3102 3103 3104 3105 3106 3107 3108 3109 3109 3109 3110 3111 3111 3111 3112 3113 3113 3113 3113 3114 3114 3115 3115 3116 3117 3118 3119 3119 3120 3121 3121
3021 3021 3021 3020 3020 3020 3019 3019 3019 3019 3019 3019 3019 3019 3020 3020 3021 3021 3022 3022 3023 3024 3025 3026 3027 3028 3029 3030 3031 3033 3034 3035 3036 3038 3040 3043 3046 3048 3049 3051 3052 3054 3056 3057 3059 3062 3064 3066 3067 3069 3070 3073 3075 3077 3078 3079 3080 3082 3084 3085 3086 3087 3086 3084 3082 3082 3084 3087 3089 3092 3094 3097 3099 3101 3102 3104 3104 3105 3106 3107 3107 3108 3109 3109 3110 3110 3110 3111 3112 3112 3112 3112 3113 3113 3114 3115 3116 3116 3117 3118 3119 3119 3120
3019 3019 3018 3018 3018 3017 3017 3017 3017 3017 3016 3016 3016 3016 3016 3017 3017 3017 3018 3019 3019 3020 3021 3022 3023 3024 3025 3026 3028 3029 3030 3031 3033 3034 3037 3039 3042 3045 3046 3048 3049 3050 3052 3054 3055 3058 3060 3062 3064 3065 3067 3069 3072 3074 3074 3075 3077 3079 3081 3082 3083 3084 3084 3082 3082 3082 3085 3087 3089 3090 3092 3095 3097 3099 3100 3101 3102 3104 3105 3105 3106 3106 3107 3108 3108 3109 3109 3109 3110 3110 3110 3111 3111 3112 3113 3113 3114 3114 3116 3116 3117 3118 3119
3016 3016 3016 3015 3015 3014 3014 3014 3014 3014 3013 3013 3013 3013 3013 3013 3014 3014 3014 3015 3015 3016 3017 3018 3019 3020 3021 3022 3024 3025 3026 3027 3029 3030 3033 3036 3039 3041 3043 3044 3045 3047 3049 3051 3052 3054 3057 3059 3061 3063 3064 3066 3069 3070 3072 3073 3074 3076 3077 3079 3079 3081 3081 3080 3080 3082 3084 3086 3088 3089 3090 3093 3095 3097 3098 3099 3100 3101 3102 3103 3104 3104 3105 3106 3107 3107 3107 3108 3108 3109 3109 3109 3110 3110 3111 3111 3112 3113 3114 3115 3116 3116 3117
3014 3013 3013 3013 3012 3012 3012 3011 3011 3011 3011 3011 3010 3010 3010 3010 3010 3010 3011 3011 3012 3012 3013 3014 3015 3016 3017 3018 3020 3021 3022 3024 3025 3027 3029 3032 3035 3037 3039 3040 3042 3044 3045 3049 3050 3050 3052 3055 3058 3059 3061 3063 3065 3067 3069 3070 3071 3072 3074 3075 3077 3078 3080 3079 3081 3083 3084 3085 3086 3088 3089 3091 3094 3095 3096 3097 3098 3099 3099 3100 3101 3102 3103 3104 3105 3105 3106 3107 3107 3107 3107 3108 3109 3109 3110 3110 3111 3112 3113 3114 3114 3115 3116
3011 3011 3010 3010 3010 3010 3009 3009 3009 3009 3008 3008 3008 3007 3007 3007 3007 3007 3007 3008 3008 3009 3009 3010 3011 3012 3013 3014 3016 3017 3018 3019 3021 3023 3025 3028 3031 3033 3035 3037 3039 3040 3042 3045 3047 3048 3049 3052 3054 3056 3058 3060 3062 3064 3066 3068 3068 3068 3070 3072 3074 3076 3078 3079 3081 3082 3083 3084 3085 3086 3088 3090 3092 3094 3094 3095 3095 3096 3097 3098 3099 3100 3101 3102 3103 3104 3104 3105 3105 3106 3106 3106 3107 3108 3108 3109 3109 3110 3111 3112 3113 3114 3114
3009 3009 3008 3008 3008 3007 3007 3007 3007 3006 3006 3005 3005 3005 3004 3004 3004 3004 3004 3004 3004 3004 3005 3006 3007 3008 3009 3010 3012 3013 3014 3016 3017 3019 3021 3024 3026 3029 3032 3034 3035 3037 3039 3041 3044 3046 3047 3048 3050 3053 3055 3056 3058 3061 3063 3064 3064 3065 3066 3069 3071 3074 3076 3077 3079 3080 3081 3082 3084 3084 3086 3088 3090 3091 3092 3093 3093 3094 3095 3096 3098 3099 3099 3100 3101 3102 3103 3103 3104 3104 3104 3105 3106 3106 3107 3108 3108 3109 3110 3111 3111 3112 3113
3008 3007 3006 3006 3005 3005 3005 3004 3004 3004 3003 3003 3003 3002 3002 3001 3000 3000 3000 3000 3000 3001 3001 3002 3003 3004 3005 3006 3008 3009 3011 3012 3014 3015 3017 3020 3022 3025 3028 3030 3032 3034 3036 3038 3040 3043 3043 3045 3047 3050 3052 3053 3055 3058 3060 3060 3061 3063 3064 3065 3068 3071 3073 3074 3076 3077 3079 3080 3081 3083 3084 3086 3087 3089 3090 3091 3091 3092 3093 3094 3095 3096 3097 3098 3099 3099 3101 3102 3102 3103 3103 3103 3104 3105 3105 3106 3107 3108 3109 3109 3110 3111 3111
3006 3005 3005 3004 3003 3003 3003 3002 3001 3001 3001 3000 3000 2999 2999 2998 2998 2998 2997 2997 2997 2997 2998 2998 2999 2999 3001 3002 3004 3005 3007 3008 3009 3011 3014 3016 3019 3021 3024 3027 3029 3031 3033 3035 3037 3039 3041 3042 3044 3046 3048 3051 3053 3055 3056 3058 3059 3059 3061 3062 3065 3068 3070 3072 3073 3075 3076 3077 3079 3080 3082 3084 3084 3086 3087 3088 3089 3089 3090 3092 3093 3094 3095 3095 3096 3098 3099 3100 3100 3101 3101 3102 3102 3103 3104 3105 3105 3106 3107 3108 3109 3109 3110
3005 3004 3003 3002 3001 3001 3000 2999 2999 2998 2998 2997 2996 2996 2995 2995 2994 2994 2994 2994 2994 2994 2994 2994 2995 2996 2996 2998 2999 3001 3002 3004 3006 3008 3010 3012 3015 3018 3020 3023 3025 3027 3029 3031 3034 3036 3038 3039 3041 3043 3045 3048 3050 3051 3053 3055 3055 3056 3058 3059 3061 3064 3067 3069 3071 3072 3074 3075 3077 3078 3080 3081 3082 3084 3085 3085 3086 3087 3088 3089 3091 3092 3093 3093 3094 3095 3097 3097 3098 3099 3099 3100 3101 3101 3102 3103 3104 3105 3105 3106 3107 3108 3109
3003 3002 3002 3001 3000 2999 2998 2997 2996 2996 2995 2994 2993 2993 2992 2992 2991 2991 2991 2991 2991 2991 2991 2991 2991 2992 2993 2994 2995 2997 2998 3000 3002 3004 3006 3008 3011 3014 3017 3019 3022 3024 3026 3028 3030 3033 3036 3037 3039 3040 3042 3045 3047 3048 3049 3052 3053 3054 3054 3056 3059 3062 3064 3066 3068 3070 3072 3073 3075 3076 3078 3079 3081 3082 3083 3084 3084 3085 3086 3087 3088 3089 3090 3091 3092 3093 3094 3095 3095 3096 3097 3098 3099 3100 3101 3102 3103 3103 3104 3105 3106 3107 3107
3001 3001 3000 2999 2998 2997 2996 2995 2994 2993 2992 2990 2989 2989 2989 2988 2988 2987 2987 2987 2987 2987 2988 2988 2988 2988 2989 2990 2991 2992 2994 2996 2998 3000 3002 3004 3007 3010 3013 3016 3018 3020 3022 3024 3027 3029 3032 3034 3036 3037 3039 3041 3043 3045 3046 3049 3050 3051 3052 3054 3056 3059 3062 3064 3066 3068 3069 3071 3073 3074 3076 3078 3079 3080 3081 3082 3083 3083 3083 3085 3087 3088 3088 3088 3089 3091 3092 3093 3094 3094 3095 3097 3098 3099 3099 3100 3101 3102 3103 3104 3104 3105 3106
2999 2999 2998 2997 2996 2995 2994 2993 2991 2990 2989 2987 2986 2985 2985 2984 2984 2984 2983 2983 2983 2984 2984 2984 2984 2985 2985 2986 2986 2987 2990 2992 2994 2996 2998 3000 3004 3006 3009 3012 3014 3017 3019 3021 3024 3026 3029 3031 3033 3034 3036 3038 3040 3042 3044 3046 3048 3049 3050 3052 3054 3057 3059 3061 3063 3065 3067 3069 3071 3072 3074 3075 3077 3078 3080 3081 3082 3082 3081 3083 3085 3086 3086 3086 3087 3089 3090 3091 3092 3093 3094 3095 3096 3097 3098 3099 3100 3101 3102 3102 3103 3104 3105
2997 2996 2995 2994 2993 2992 2991 2989 2989 2987 2986 2984 2983 2982 2981 2981 2980 2980 2979 2979 2979 2979 2979 2979 2980 2981 2982 2982 2983 2984 2986 2988 2990 2992 2994 2997 3000 3003 3005 3008 3011 3014 3016 3018 3020 3023 3026 3029 3030 3032 3033 3035 3037 3039 3042 3044 3046 3047 3048 3049 3051 3054 3056 3059 3061 3063 3064 3066 3068 3069 3071 3073 3074 3076 3077 3079 3080 3082 3082 3082 3083 3084 3084 3085 3086 3088 3089 3090 3091 3092 3093 3094 3095 3096 3097 3098 3099 3099 3100 3101 3102 3103 3104
2994 2993 2992 2990 2989 2988 2987 2986 2985 2984 2982 2981 2979 2979 2978 2977 2976 2976 2976 2976 2976 2976 2976 2976 2976 2977 2978 2979 2980 2981 2983 2984 2986 2988 2990 2993 2996 2999 3002 3004 3007 3010 3012 3014 3017 3020 3023 3025 3027 3029 3030 3032 3035 3038 3040 3042 3044 3045 3046 3047 3049 3051 3054 3056 3058 3060 3061 3063 3065 3067 3069 3070 3072 3073 3074 3077 3079 3081 3081 3079 3080 3083 3084 3085 3086 3087 3088 3088 3089 3090 3092 3093 3094 3095 3096 3097 3098 3099 3099 3100 3101 3102 3102
2991 2989 2988 2987 2985 2984 2983 2982 2981 2979 2978 2977 2976 2975 2974 2973 2973 2972 2972 2972 2972 2972 2972 2972 2972 2973 2974 2975 2976 2978 2979 2981 2982 2984 2987 2989 2992 2995 2998 3001 3004 3006 3009 3011 3014 3017 3019 3023 3025 3027 3028 3030 3033 3035 3038 3039 3041 3042 3044 3045 3047 3049 3050 3052 3054 3057 3058 3060 3062 3064 3066 3068 3069 3070 3072 3075 3078 3079 3079 3077 3079 3082 3083 3084 3085 3086 3085 3086 3088 3089 3090 3092 3093 3094 3095 3096 3096 3097 3098 3099 3100 3100 3101
2987 2986 2984 2983 2982 2981 2979 2978 2977 2975 2974 2973 2972 2971 2970 2969 2969 2968 2968 2968 2968 2968 2968 2968 2968 2969 2970 2971 2972 2974 2976 2977 2979 2981 2983 2986 2988 2991 2994 2997 3000 3003 3005 3008 3011 3013 3016 3020 3022 3024 3024 3027 3030 3033 3036 3037 3038 3040 3041 3043 3044 3046 3047 3049 3052 3054 3055 3057 3059 3062 3064 3065 3066 3067 3069 3073 3075 3077 3077 3077 3079 3080 3081 3083 3084 3084 3083 3084 3086 3088 3089 3090 3092 3093 3094 3094 3095 3096 3097 3098 3099 3099 3100
2984 2983 2981 2980 2979 2977 2976 2974 2973 2972 2971 2969 2968 2967 2966 2965 2964 2964 2964 2964 2964 2964 2964 2964 2964 2965 2966 2967 2968 2970 2972 2974 2975 2978 2980 2982 2984 2987 2990 2994 2996 2999 3002 3004 3007 3010 3013 3017 3020 3021 3021 3024 3027 3031 3034 3034 3035 3037 3039 3040 3041 3042 3044 3046 3049 3051 3053 3055 3057 3059 3062 3063 3064 3065 3067 3070 3073 3075 3075 3076 3077 3079 3080 3081 3081 3081 3081 3083 3084 3086 3088 3089 3090 3091 3092 3093 3094 3095 3095 3096 3097 3098 3099
2982 2980 2979 2977 2976 2974 2973 2971 2969 2968 2967 2966 2965 2964 2963 2962 2961 2960 2960 2960 2960 2960 2961 2961 2962 2962 2962 2964 2965 2966 2968 2969 2972 2974 2976 2979 2981 2984 2987 2990 2993 2995 2998 3001 3004 3007 3010 3014 3017 3018 3019 3021 3025 3029 3031 3031 3033 3034 3036 3037 3037 3038 3041 3044 3046 3048 3050 3053 3055 3057 3060 3061 3062 3063 3066 3067 3069 3072 3073 3074 3075 3077 3078 3079 3079 3079 3080 3081 3083 3084 3087 3088 3089 3090 3091 3092 3093 3094 3094 3095 3096 3097 3098
2979 2978 2976 2974 2973 2971 2969 2968 2966 2965 2964 2962 2961 2960 2959 2958 2958 2957 2957 2957 2957 2957 2957 2958 2958 2959 2960 2961 2961 2963 2964 2966 2969 2971 2973 2975 2978 2980 2984 2986 2989 2992 2994 2997 3000 3004 3007 3011 3014 3016 3017 3019 3022 3026 3028 3029 3030 3032 3034 3034 3034 3035 3038 3041 3043 3046 3048 3051 3053 3055 3058 3059 3061 3063 3064 3066 3067 3069 3070 3071 3073 3074 3076 3076 3077 3077 3078 3079 3081 3083 3085 3087 3088 3089 3090 3091 3092 3093 3093 3094 3095 3096 3097
2977 2975 2973 2971 2969 2968 2966 2964 2963 2961 2960 2959 2958 2957 2956 2955 2955 2954 2954 2954 2954 2954 2954 2955 2955 2956 2957 2958 2958 2959 2962 2963 2965 2967 2970 2972 2974 2977 2980 2983 2986 2989 2991 2994 2998 3001 3005 3008 3012 3014 3015 3017 3019 3022 3026 3027 3028 3029 3031 3031 3030 3031 3034 3038 3041 3044 3046 3049 3052 3054 3056 3058 3060 3062 3063 3064 3066 3067 3069 3070 3071 3073 3074 3075 3075 3076 3077 3078 3080 3082 3084 3085 3087 3088 3089 3090 3090 3091 3092 3093 3094 3094 3095
2974 2972 2970 2968 2966 2965 2963 2961 2960 2958 2957 2956 2955 2954 2954 2953 2952 2952 2951 2951 2950 2951 2951 2952 2953 2953 2954 2955 2956 2957 2959 2960 2962 2964 2966 2969 2971 2974 2976 2979 2983 2985 2988 2991 2995 2999 3003 3006 3009 3011 3013 3014 3016 3019 3023 3025 3026 3027 3028 3029 3028 3029 3032 3035 3038 3041 3044 3048 3050 3052 3054 3056 3059 3061 3062 3063 3064 3065 3067 3068 3069 3071 3072 3073 3074 3075 3076 3077 3078 3080 3082 3084 3085 3086 3088 3089 3089 3090 3091 3092 3092 3093 3094
2972 2969 2967 2965 2963 2962 2960 2958 2957 2955 2954 2953 2952 2951 2951 2950 2949 2949 2949 2949 2948 2948 2949 2949 2950 2951 2951 2952 2953 2954 2955 2957 2960 2962 2964 2966 2968 2970 2973 2976 2979 2983 2985 2988 2992 2996 3000 3003 3006 3009 3010 3012 3014 3016 3019 3023 3024 3025 3027 3027 3027 3029 3031 3034 3037 3040 3043 3046 3048 3050 3053 3055 3058 3060 3060 3061 3063 3064 3065 3066 3067 3069 3071 3072 3073 3073 3074 3075 3077 3079 3081 3082 3084 3085 3086 3087 3088 3089 3089 3090 3091 3092 3093
2969 2966 2964 2962 2960 2959 2957 2955 2954 2953 2951 2950 2950 2949 2949 2948 2947 2947 2946 2946 2946 2946 2946 2947 2948 2949 2949 2950 2951 2952 2953 2955 2957 2959 2961 2963 2965 2967 2970 2974 2977 2979 2982 2985 2989 2994 2997 3000 3003 3005 3007 3010 3013 3015 3018 3021 3022 3023 3024 3026 3027 3028 3030 3033 3035 3038 3041 3044 3046 3049 3051 3054 3056 3058 3059 3060 3061 3062 3063 3064 3066 3068 3069 3070 3071 3072 3073 3074 3076 3078 3079 3081 3082 3084 3084 3086 3087 3087 3088 3089 3090 3090 3091
2966 2964 2962 2960 2958 2956 2955 2953 2952 2950 2949 2948 2948 2947 2946 2946 2945 2945 2944 2944 2944 2944 2944 2945 2945 2946 2947 2948 2949 2950 2951 2953 2955 2957 2959 2961 2963 2965 2968 2971 2974 2976 2979 2983 2987 2991 2994 2997 3000 3002 3005 3008 3011 3013 3016 3019 3020 3021 3023 3025 3026 3027 3029 3032 3034 3036 3039 3042 3044 3047 3049 3051 3054 3055 3057 3058 3059 3060 3061 3062 3064 3066 3068 3069 3070 3071 3072 3073 3074 3076 3078 3079 3081 3082 3083 3084 3085 3086 3087 3088 3088 3089 3090
2964 2962 2960 2958 2956 2954 2953 2951 2950 2948 2947 2946 2945 2945 2944 2944 2944 2943 2943 2942 2942 2942 2942 2943 2943 2944 2945 2946 2947 2948 2949 2951 2953 2955 2957 2959 2961 2962 2965 2968 2971 2974 2977 2981 2984 2988 2991 2994 2997 2999 3003 3006 3009 3012 3014 3017 3019 3020 3021 3024 3025 3026 3028 3030 3033 3035 3037 3040 3042 3044 3047 3049 3051 3053 3055 3056 3057 3058 3059 3061 3063 3065 3067 3069 3070 3071 3071 3072 3073 3074 3076 3079 3080 3081 3082 3083 3084 3085 3086 3086 3087 3088 3088
2962 2960 2959 2957 2955 2953 2951 2949 2948 2947 2945 2944 2944 2943 2943 2942 2942 2941 2941 2940 2940 2940 2941 2941 2942 2942 2943 2944 2945 2946 2948 2949 2951 2953 2954 2957 2959 2961 2963 2966 2969 2972 2975 2979 2982 2985 2989 2992 2995 2998 3001 3004 3007 3010 3012 3014 3016 3018 3019 3022 3024 3025 3026 3029 3031 3033 3035 3038 3040 3042 3044 3046 3048 3050 3052 3054 3054 3056 3058 3060 3062 3064 3066 3068 3069 3070 3071 3072 3072 3074 3076 3078 3079 3079 3080 3081 3083 3084 3084 3085 3086 3086 3087
2961 2959 2957 2955 2953 2951 2950 2948 2947 2945 2944 2943 2942 2942 2941 2941 2940 2939 2939 2938 2938 2938 2939 2939 2940 2940 2941 2943 2944 2945 2946 2947 2949 2951 2953 2955 2957 2959 2961 2964 2967 2970 2973 2977 2979 2983 2987 2990 2993 2995 2999 3002 3005 3008 3010 3012 3014 3015 3017 3019 3022 3024 3025 3027 3029 3031 3033 3035 3037 3039 3041 3043 3046 3048 3049 3050 3052 3054 3056 3059 3062 3063 3065 3066 3068 3069 3071 3072 3072 3073 3075 3076 3078 3078 3079 3080 3081 3083 3084 3084 3085 3085 3086
2959 2958 2956 2954 2952 2950 2948 2947 2945 2944 2943 2942 2941 2940 2939 2939 2939 2938 2937 2936 2936 2936 2936 2937 2938 2939 2940 2941 2942 2943 2944 2945 2947 2949 2951 2953 2955 2957 2959 2962 2965 2969 2972 2975 2978 2981 2984 2987 2990 2994 2997 3000 3004 3007 3008 3010 3012 3014 3015 3017 3019 3022 3024 3026 3027 3029 3031 3033 3034 3036 3038 3041 3043 3044 3046 3048 3049 3052 3055 3058 3060 3062 3064 3064 3066 3068 3070 3072 3071 3072 3073 3074 3076 3077 3078 3079 3080 3081 3082 3083 3084 3084 3084
2958 2956 2954 2952 2950 2949 2947 2945 2944 2943 2941 2940 2939 2939 2938 2938 2937 2936 2936 2935 2934 2934 2934 2935 2937 2938 2938 2939 2940 2941 2943 2944 2945 2947 2949 2952 2954 2956 2958 2960 2964 2967 2970 2974 2976 2979 2982 2985 2988 2992 2995 2999 3003 3005 3006 3009 3010 3012 3014 3015 3017 3019 3022 3024 3026 3027 3029 3030 3032 3034 3036 3039 3040 3041 3044 3046 3049 3051 3054 3057 3059 3061 3062 3063 3064 3066 3069 3070 3070 3070 3071 3073 3074 3075 3076 3078 3079 3080 3081 3082 3083 3083 3083
2956 2954 2952 2950 2949 2947 2945 2944 2943 2941 2940 2939 2937 2937 2936 2936 2935 2935 2934 2934 2933 2933 2933 2934 2935 2937 2937 2938 2939 2940 2941 2942 2944 2946 2947 2951 2954 2956 2957 2959 2962 2964 2966 2970 2973 2976 2979 2982 2985 2989 2993 2997 3000 3002 3004 3007 3009 3010 3012 3014 3015 3017 3019 3022 3023 3024 3026 3027 3029 3031 3034 3036 3038 3040 3043 3045 3048 3051 3054 3056 3058 3060 3061 3062 3064 3065 3067 3067 3067 3068 3070 3071 3072 3074 3075 3076 3077 3079 3079 3080 3081 3082 3082
2955 2953 2951 2949 2947 2946 2944 2943 2941 2940 2939 2937 2936 2935 2934 2934 2934 2933 2933 2933 2932 2932 2931 2931 2933 2935 2935 2936 2937 2939 2939 2941 2943 2945 2947 2949 2953 2954 2955 2957 2959 2962 2965 2968 2970 2973 2975 2979 2982 2986 2991 2994 2998 3000 3002 3005 3007 3009 3011 3012 3013 3015 3018 3020 3021 3022 3023 3025 3028 3030 3033 3035 3038 3040 3042 3044 3047 3050 3053 3055 3057 3058 3059 3061 3062 3062 3062 3063 3065 3067 3068 3069 3070 3072 3073 3074 3076 3077 3078 3079 3079 3080 3080
2954 2952 2950 2948 2946 2944 2943 2941 2940 2938 2937 2935 2934 2933 2932 2932 2932 2932 2932 2931 2931 2931 2931 2930 2931 2932 2933 2934 2935 2937 2938 2940 2942 2944 2946 2948 2951 2953 2954 2956 2960 2963 2966 2968 2969 2971 2973 2977 2981 2985 2989 2993 2996 2999 3001 3003 3005 3008 3009 3010 3012 3014 3016 3018 3019 3020 3022 3024 3027 3030 3032 3034 3036 3039 3041 3043 3045 3048 3051 3053 3055 3057 3058 3058 3058 3058 3059 3061 3063 3065 3067 3068 3069 3070 3071 3073 3074 3075 3076 3077 3078 3078 3079
2953 2951 2949 2947 2945 2943 2942 2940 2938 2937 2935 2934 2932 2931 2930 2930 2930 2930 2930 2930 2930 2930 2930 2930 2930 2930 2932 2933 2934 2935 2936 2939 2941 2943 2944 2946 2949 2951 2954 2956 2959 2962 2963 2965 2968 2970 2973 2976 2980 2984 2988 2990 2993 2996 2999 3001 3004 3006 3007 3008 3010 3013 3015 3016 3018 3019 3021 3024 3026 3029 3030 3032 3034 3037 3039 3041 3044 3047 3049 3051 3052 3054 3054 3054 3055 3056 3058 3060 3062 3064 3065 3066 3068 3069 3070 3072 3073 3074 3074 3076 3076 3076 3077
2952 2949 2948 2946 2944 2942 2940 2938 2937 2935 2934 2932 2931 2929 2928 2928 2928 2928 2928 2928 2928 2928 2929 2929 2929 2930 2930 2931 2932 2933 2934 2937 2939 2942 2944 2945 2948 2950 2953 2955 2957 2959 2961 2963 2967 2971 2973 2975 2979 2983 2985 2989 2992 2995 2997 3000 3002 3004 3005 3007 3009 3011 3013 3014 3016 3019 3020 3022 3025 3027 3028 3030 3033 3035 3038 3040 3042 3045 3048 3049 3049 3050 3051 3053 3054 3056 3057 3059 3061 3062 3063 3065 3067 3068 3069 3070 3071 3073 3074 3075 3075 3074 3074
2951 2949 2947 2945 2944 2941 2939 2937 2935 2934 2933 2931 2929 2927 2926 2925 2925 2925 2925 2926 2927 2927 2927 2927 2928 2929 2929 2929 2931 2932 2933 2935 2938 2941 2943 2945 2947 2949 2951 2954 2957 2960 2962 2965 2969 2971 2972 2974 2977 2980 2983 2988 2991 2994 2996 2999 3001 3003 3004 3006 3008 3009 3011 3013 3015 3017 3019 3020 3022 3024 3027 3029 3031 3034 3036 3038 3041 3044 3046 3046 3046 3048 3050 3051 3053 3054 3056 3058 3059 3060 3062 3064 3065 3067 3068 3069 3071 3073 3074 3074 3073 3072 3073
2950 2948 2946 2945 2943 2941 2938 2935 2934 2932 2931 2930 2928 2926 2924 2923 2923 2923 2923 2924 2924 2925 2926 2926 2927 2927 2928 2928 2930 2931 2932 2934 2937 2940 2943 2944 2946 2948 2950 2954 2957 2959 2960 2964 2968 2969 2969 2972 2975 2979 2982 2986 2989 2992 2995 2997 2999 3001 3003 3005 3007 3008 3010 3013 3015 3016 3017 3019 3021 3023 3025 3027 3029 3032 3034 3037 3040 3044 3045 3043 3044 3046 3048 3049 3051 3053 3055 3056 3058 3059 3061 3062 3064 3066 3067 3068 3071 3073 3073 3072 3070 3070 3071
2950 2948 2946 2944 2943 2940 2937 2935 2932 2931 2929 2928 2927 2925 2923 2921 2920 2920 2921 2922 2923 2924 2924 2925 2925 2926 2926 2928 2929 2930 2931 2934 2936 2939 2942 2944 2945 2947 2949 2953 2956 2958 2960 2962 2964 2967 2969 2972 2975 2978 2980 2983 2986 2989 2993 2995 2998 3000 3002 3004 3005 3006 3009 3011 3013 3015 3016 3018 3020 3022 3024 3025 3028 3030 3033 3036 3040 3042 3041 3041 3042 3044 3046 3048 3049 3051 3053 3055 3056 3058 3059 3061 3063 3064 3065 3068 3070 3071 3070 3069 3069 3069 3069
2950 2948 2946 2944 2942 2940 2938 2934 2932 2930 2928 2927 2925 2924 2921 2919 2919 2919 2919 2920 2921 2922 2923 2924 2925 2925 2926 2927 2928 2929 2931 2933 2936 2938 2941 2943 2945 2947 2949 2953 2956 2958 2959 2962 2964 2966 2969 2973 2976 2978 2980 2983 2986 2989 2991 2994 2997 2999 3001 3003 3004 3006 3008 3010 3012 3014 3016 3017 3019 3020 3022 3024 3027 3030 3034 3037 3039 3040 3038 3039 3040 3042 3044 3045 3048 3049 3051 3053 3055 3056 3058 3059 3061 3062 3064 3065 3066 3067 3067 3067 3067 3068 3069